Miscellaneous Local Product
Issued by NWS Hastings, NE

Home | Current Version | Previous Version | Graphics & Text | Print | Product List | Glossary On
Versions: 1 2 3 4 5 6 7 8 9 10 11 12 13 14 15 16 17 18 19 20 21 22 23 24 25 26 27 28 29 30 31 32 33 34 35 36 37 38 39 40 41 42 43 44 45 46 47 48 49 50
000
AXUS43 KGID 261702
MISGRI

GID CWA HOURLY WEATHER ROUNDUP
NATIONAL WEATHER SERVICE HASTINGS NE
1200 PM CDT TUE AUG 26 2014

NOTE: "FAIR" INDICATES FEW OR NO CLOUDS BELOW 12,000 FEET WITH NO
SIGNIFICANT WEATHER AND/OR OBSTRUCTIONS TO VISIBILITY.

...SOUTH CENTRAL NEBRASKA...

CITY           SKY/WX    TMP DP  RH WIND       PRES   REMARKS
GRAND ISLAND   PTSUNNY   71  64  78 CALM      30.20F
HASTINGS       PTSUNNY   71  60  68 SE3       30.20S
KEARNEY        PTSUNNY   66  63  88 S7        30.21F
ORD            PTSUNNY   65  59  81 S5        30.20S
YORK           CLOUDY    72 N/A N/A CALM      30.20R
LEXINGTON      LGT RAIN  66  63  89 SE6       30.19F
HOLDREGE       PTSUNNY   67  62  84 CALM      30.21F
HEBRON         MOSUNNY   79  61  54 SE9       30.15F

...NEBRASKA PANHANDLE...

CITY           SKY/WX    TMP DP  RH WIND       PRES   REMARKS
CHADRON        MOSUNNY   75  58  55 S9        30.14F
ALLIANCE       MOSUNNY   73  57  57 S15       30.18F
SCOTTSBLUFF    MOSUNNY   75  60  59 E12       30.17S
SIDNEY         MOSUNNY   73  55  53 S9        30.22S

...WESTERN AND NORTH CENTRAL NEBRASKA...

CITY           SKY/WX    TMP DP  RH WIND       PRES   REMARKS
VALENTINE      PTSUNNY   69  52  54 SE9       30.19S
AINSWORTH      CLOUDY    66  56  68 SE8       30.20F
ONEILL         PTSUNNY   68  59  72 SE5       30.21F
BROKEN BOW     PTSUNNY   67  59  75 SE12      30.20F
IMPERIAL       CLOUDY    68  60  75 E9        30.20S
NORTH PLATTE   PTSUNNY   69  59  70 SE9       30.20R
MCCOOK         CLOUDY    66  63  90 SE10      30.19R

...EASTERN NEBRASKA...

CITY           SKY/WX    TMP DP  RH WIND       PRES   REMARKS
NORFOLK        CLOUDY    68  59  73 E5        30.20R
SO SIOUX CITY  PTSUNNY   68  59  73 VRB5      30.19F
TEKAMAH        MOSUNNY   72  63  73 NE8       30.17S
COLUMBUS       CLOUDY   N/A N/A N/A E6        30.19S
ALBION         CLOUDY    65  58  78 CALM      30.21R
OMAHA EPPLEY   PTSUNNY   73  64  73 E9        30.18S HAZE
OFFUTT AFB     CLOUDY    74  70  87 E6        30.17F
MILLARD        PTSUNNY   73  65  75 E3        30.18R
LINCOLN        CLOUDY    73  65  75 SE6       30.19S
NEBRASKA CITY  CLOUDY    74  68  81 E6        30.16F
BEATRICE       PTSUNNY   79  64  60 SE8       30.15F
FALLS CITY     CLOUDY    75  67  76 E6        30.14F

...NORTHERN KANSAS...

CITY           SKY/WX    TMP DP  RH WIND       PRES   REMARKS
GOODLAND       PTSUNNY   73  61  65 E10       30.21S
HILL CITY      MOSUNNY   75  61  61 VRB7      30.20R
NORTON         MOSUNNY   73  59  60 E9        30.19F
PHILLIPSBURG   MOSUNNY   75  61  60 E7        30.19R
SMITH CENTER   PTSUNNY   79  63  57 SE5       30.18S
BELOIT         MOSUNNY   79  66  65 SE5       30.14S
HAYS           MOSUNNY   79  63  57 SE10      30.17F
RUSSELL        SUNNY     80  64  58 SE7       30.15S
CONCORDIA      SUNNY     80  69  69 E9        30.15S
SALINA         SUNNY     88  64  44 E12       30.11F
TOPEKA         PTSUNNY   85  67  54 E12       30.13F



USA.gov is the U.S. government's official web portal to all federal, state and local government web resources and services.